| time (UTC) | temp C | wind direction | speed KPH | gust KPH | rain 1hr cm | rain 24hr cm | rain mn cm | humidity % | barometer mb |
| 20260903084523 | 21 | 0.0 | 0.0 | 0.00 | 0.00 | 0.00 | 98 | 1017.9 | |
| 20260903083523 | 21 | 0.0 | 0.0 | 0.00 | 0.00 | 0.00 | 98 | 1017.9 | |
| 20260903082523 | 21 | 0.0 | 0.0 | 0.00 | 0.00 | 0.00 | 98 | 1017.8 | |
| 20260903081543 | 22 | 0.0 | 0.0 | 0.00 | 0.00 | 0.00 | 98 | 1017.9 | |
| 20260903080523 | 22 | 0.0 | 0.0 | 0.00 | 0.00 | 0.00 | 98 | 1017.9 | |
| 20260903075523 | 22 | 0.0 | 0.0 | 0.00 | 0.00 | 0.00 | 98 | 1017.8 | |
| 20260903074544 | 22 | 0.0 | 0.0 | 0.00 | 0.00 | 0.00 | 98 | 1017.8 | |
| 20260903073523 | 22 | 0.0 | 0.0 | 0.00 | 0.00 | 0.00 | 98 | 1017.7 | |
| 20260903072523 | 22 | 0.0 | 0.0 | 0.00 | 0.00 | 0.00 | 98 | 1017.7 | |
| 20260903071523 | 22 | 0.0 | 0.0 | 0.00 | 0.00 | 0.00 | 97 | 1017.7 | |
| 20260903070523 | 22 | 0.0 | 0.0 | 0.00 | 0.00 | 0.00 | 97 | 1017.7 | |
| 20260903065544 | 22 | 0.0 | 0.0 | 0.00 | 0.00 | 0.00 | 97 | 1017.7 | |
| 20260903064524 | 22 | 0.0 | 0.0 | 0.00 | 0.00 | 0.00 | 97 | 1017.6 | |
| 20260903063544 | 22 | 0.0 | 0.0 | 0.00 | 0.00 | 0.00 | 97 | 1017.7 | |
| 20260903062523 | 22 | 0.0 | 0.0 | 0.00 | 0.00 | 0.00 | 97 | 1017.8 | |
| 20260903061523 | 22 | 0.0 | 0.0 | 0.00 | 0.00 | 0.00 | 97 | 1017.7 | |
| 20260903060544 | 22 | 0.0 | 0.0 | 0.00 | 0.00 | 0.00 | 97 | 1017.7 | |
| 20260903055524 | 23 | 0.0 | 0.0 | 0.00 | 0.00 | 0.00 | 97 | 1017.6 | |
| 20260903054523 | 23 | 0.0 | 0.0 | 0.00 | 0.00 | 0.00 | 98 | 1017.6 | |
| 20260903053534 | 23 | 0.0 | 0.0 | 0.00 | 0.00 | 0.00 | 97 | 1017.6 | |
| 20260903052544 | 23 | 0.0 | 0.0 | 0.00 | 0.00 | 0.00 | 97 | 1017.5 | |
| 20260903051523 | 22 | 0.0 | 0.0 | 0.00 | 0.00 | 0.00 | 97 | 1017.4 | |
| 20260903050523 | 23 | 0.0 | 0.0 | 0.00 | 0.00 | 0.00 | 97 | 1017.4 | |
| 20260903045524 | 23 | 0.0 | 0.0 | 0.00 | 0.00 | 0.00 | 97 | 1017.4 | |
| 20260903044523 | 23 | 0.0 | 0.0 | 0.00 | 0.00 | 0.00 | 97 | 1017.3 | |
| 20260903043524 | 23 | 0.0 | 0.0 | 0.00 | 0.00 | 0.00 | 97 | 1017.3 | |
| 20260903042523 | 23 | 0.0 | 0.0 | 0.00 | 0.00 | 0.00 | 97 | 1017.4 | |
| 20260903041524 | 23 | 0.0 | 0.0 | 0.00 | 0.00 | 0.00 | 97 | 1017.4 | |
| 20260903040524 | 23 | 0.0 | 0.0 | 0.00 | 0.00 | 0.00 | 97 | 1017.4 | |
| 20260903035523 | 23 | 0.0 | 0.0 | 0.00 | 0.00 | 0.00 | 96 | 1017.4 | |
| 20260903034534 | 23 | 0.0 | 0.0 | 0.00 | 0.00 | 0.00 | 96 | 1017.4 | |
| 20260903033524 | 23 | 0.0 | 0.0 | 0.00 | 0.00 | 0.00 | 96 | 1017.5 | |
| 20260903032534 | 23 | 0.0 | 0.0 | 0.00 | 0.00 | 0.00 | 96 | 1017.5 | |
| 20260903031524 | 23 | 0.0 | 0.0 | 0.00 | 0.00 | 0.00 | 96 | 1017.5 | |
| 20260903030524 | 23 | 0.0 | 0.0 | 0.00 | 0.00 | 0.00 | 96 | 1017.5 | |
| 20260903025524 | 24 | 0.0 | 0.0 | 0.00 | 0.00 | 0.00 | 95 | 1017.5 | |
| 20260903024524 | 24 | 0.0 | 0.0 | 0.00 | 0.00 | 0.00 | 95 | 1017.6 | |
| 20260903023523 | 24 | 0.0 | 0.0 | 0.00 | 0.00 | 0.00 | 95 | 1017.6 | |
| 20260903022523 | 24 | 0.0 | 0.0 | 0.00 | 0.00 | 0.00 | 94 | 1017.7 | |
| 20260903021524 | 25 | 0.0 | 0.0 | 0.00 | 0.00 | 0.00 | 94 | 1017.7 | |
| 20260903020544 | 25 | 0.0 | 0.0 | 0.00 | 0.00 | 0.00 | 94 | 1017.6 | |
| 20260903015524 | 25 | 0.0 | 0.0 | 0.00 | 0.00 | 0.00 | 93 | 1017.6 | |
| 20260903014524 | 25 | 0.0 | 0.0 | 0.00 | 0.00 | 0.00 | 93 | 1017.6 | |
| 20260903013524 | 25 | 0.0 | 0.0 | 0.00 | 0.00 | 0.00 | 92 | 1017.5 | |
| 20260903012534 | 25 | 0.0 | 0.0 | 0.00 | 0.00 | 0.00 | 91 | 1017.4 | |
| 20260903011555 | 25 | 108 | 0.0 | 1.6 | 0.00 | 0.00 | 0.00 | 92 | 1017.4 |
| 20260903010524 | 26 | 0.0 | 0.0 | 0.00 | 0.00 | 0.00 | 90 | 1017.2 | |
| 20260903005535 | 26 | 0.0 | 0.0 | 0.00 | 0.00 | 0.00 | 90 | 1017.2 | |
| 20260903004555 | 26 | 0.0 | 0.0 | 0.00 | 0.00 | 0.00 | 91 | 1017.1 | |
| 20260903003615 | 27 | 0.0 | 0.0 | 0.00 | 0.00 | 0.00 | 88 | 1017.0 | |
| 20260903002555 | 27 | 353 | 0.0 | 1.6 | 0.00 | 0.00 | 0.00 | 84 | 1017.0 |
| 20260903001514 | 28 | 0.0 | 0.0 | 0.00 | 0.00 | 0.00 | 81 | 1017.0 | |
| 20260903000534 | 28 | 0.0 | 1.6 | 0.00 | 0.00 | 0.00 | 80 | 1017.0 | |
| 20260902235554 | 29 | 0.0 | 0.0 | 0.00 | 0.00 | 0.00 | 77 | 1017.0 | |
| 20260902234524 | 30 | 250 | 1.6 | 3.2 | 0.00 | 0.00 | 0.00 | 75 | 1017.0 |
| 20260902233525 | 30 | 222 | 3.2 | 4.8 | 0.00 | 0.00 | 0.00 | 73 | 1017.0 |
| 20260902232524 | 31 | 215 | 4.8 | 4.8 | 0.00 | 0.00 | 0.00 | 71 | 1017.0 |
| 20260902231545 | 33 | 215 | 3.2 | 4.8 | 0.00 | 0.00 | 0.00 | 68 | 1017.1 |
| 20260902230524 | 33 | 0.0 | 0.0 | 0.00 | 0.00 | 0.00 | 66 | 1017.1 | |
| 20260902225524 | 33 | 0.0 | 0.0 | 0.00 | 0.00 | 0.00 | 65 | 1017.1 | |
| 20260902224524 | 33 | 0.0 | 0.0 | 0.00 | 0.00 | 0.00 | 66 | 1017.2 | |
| 20260902223524 | 33 | 0.0 | 0.0 | 0.00 | 0.00 | 0.00 | 66 | 1017.2 | |
| 20260902222525 | 33 | 250 | 0.0 | 3.2 | 0.00 | 0.00 | 0.00 | 66 | 1017.2 |
| 20260902221525 | 33 | 204 | 4.8 | 6.4 | 0.00 | 0.00 | 0.00 | 61 | 1017.3 |
| 20260902220524 | 34 | 209 | 6.4 | 9.7 | 0.00 | 0.00 | 0.00 | 58 | 1017.4 |
| 20260902215524 | 34 | 215 | 8.0 | 11.3 | 0.00 | 0.00 | 0.00 | 58 | 1017.4 |
| 20260902214544 | 34 | 207 | 9.7 | 14.5 | 0.00 | 0.00 | 0.00 | 58 | 1017.4 |
| 20260902213524 | 35 | 206 | 6.4 | 11.3 | 0.00 | 0.00 | 0.00 | 59 | 1017.4 |
| 20260902212657 | 32 | 213 | 6.4 | 8.0 | 0.00 | 0.00 | 0.00 | 61 | 1017.5 |
| 20260902211616 | 33 | 204 | 8.0 | 9.7 | 0.00 | 0.00 | 0.00 | 57 | 1017.5 |
| 20260902210555 | 34 | 207 | 9.7 | 12.9 | 0.00 | 0.00 | 0.00 | 57 | 1017.5 |
| 20260902205524 | 34 | 211 | 9.7 | 14.5 | 0.00 | 0.00 | 0.00 | 57 | 1017.6 |
| 20260902204524 | 34 | 197 | 8.0 | 11.3 | 0.00 | 0.00 | 0.00 | 58 | 1017.6 |
| 20260902203534 | 35 | 207 | 8.0 | 11.3 | 0.00 | 0.00 | 0.00 | 56 | 1017.8 |
| 20260902202545 | 35 | 214 | 6.4 | 9.7 | 0.00 | 0.00 | 0.00 | 55 | 1017.8 |
| 20260902201614 | 35 | 247 | 4.8 | 8.0 | 0.00 | 0.00 | 0.00 | 54 | 1017.9 |
| 20260902200545 | 34 | 255 | 6.4 | 12.9 | 0.00 | 0.00 | 0.00 | 57 | 1018.0 |
| 20260902195605 | 33 | 222 | 11.3 | 17.7 | 0.00 | 0.00 | 0.00 | 55 | 1018.1 |
| 20260902194544 | 34 | 211 | 8.0 | 11.3 | 0.00 | 0.00 | 0.00 | 56 | 1018.2 |
| 20260902193544 | 35 | 194 | 11.3 | 16.1 | 0.00 | 0.00 | 0.00 | 54 | 1018.3 |
| 20260902192625 | 34 | 199 | 6.4 | 11.3 | 0.00 | 0.00 | 0.00 | 59 | 1018.4 |
| 20260902191525 | 33 | 207 | 8.0 | 9.7 | 0.00 | 0.00 | 0.00 | 57 | 1018.5 |
| 20260902190644 | 33 | 214 | 11.3 | 14.5 | 0.00 | 0.00 | 0.00 | 57 | 1018.5 |
| 20260902185515 | 33 | 206 | 6.4 | 9.7 | 0.00 | 0.00 | 0.00 | 60 | 1018.6 |
| 20260902184604 | 33 | 193 | 9.7 | 14.5 | 0.00 | 0.00 | 0.00 | 59 | 1018.6 |
| 20260902183525 | 33 | 229 | 9.7 | 11.3 | 0.00 | 0.00 | 0.00 | 59 | 1018.6 |
| 20260902182524 | 33 | 240 | 8.0 | 14.5 | 0.00 | 0.00 | 0.00 | 57 | 1018.8 |
| 20260902181525 | 33 | 208 | 9.7 | 17.7 | 0.00 | 0.00 | 0.00 | 61 | 1018.8 |
| 20260902180545 | 33 | 221 | 11.3 | 14.5 | 0.00 | 0.00 | 0.00 | 60 | 1018.9 |
| 20260902175525 | 33 | 191 | 9.7 | 12.9 | 0.00 | 0.00 | 0.00 | 62 | 1019.0 |
| 20260902174535 | 33 | 192 | 9.7 | 12.9 | 0.00 | 0.00 | 0.00 | 62 | 1019.1 |
| 20260902173524 | 33 | 215 | 9.7 | 17.7 | 0.00 | 0.00 | 0.00 | 61 | 1019.3 |
| 20260902172615 | 33 | 228 | 6.4 | 12.9 | 0.00 | 0.00 | 0.00 | 61 | 1019.3 |
| 20260902171525 | 33 | 187 | 9.7 | 17.7 | 0.00 | 0.00 | 0.00 | 60 | 1019.4 |
| 20260902170515 | 33 | 200 | 8.0 | 9.7 | 0.00 | 0.00 | 0.00 | 65 | 1019.5 |
| 20260902165525 | 32 | 219 | 9.7 | 16.1 | 0.00 | 0.00 | 0.00 | 64 | 1019.6 |
| 20260902164524 | 32 | 197 | 9.7 | 14.5 | 0.00 | 0.00 | 0.00 | 64 | 1019.7 |
| 20260902163525 | 32 | 211 | 8.0 | 12.9 | 0.00 | 0.00 | 0.00 | 65 | 1019.7 |
| 20260902162526 | 32 | 224 | 8.0 | 12.9 | 0.00 | 0.00 | 0.00 | 65 | 1019.8 |
| 20260902161524 | 32 | 230 | 6.4 | 12.9 | 0.00 | 0.00 | 0.00 | 66 | 1019.8 |
| 20260902160545 | 32 | 206 | 11.3 | 14.5 | 0.00 | 0.00 | 0.00 | 67 | 1019.8 |
| 20260902155525 | 32 | 207 | 9.7 | 11.3 | 0.00 | 0.00 | 0.00 | 69 | 1019.8 |
| 20260902154525 | 31 | 209 | 8.0 | 11.3 | 0.00 | 0.00 | 0.00 | 68 | 1019.8 |
| 20260902153525 | 31 | 222 | 9.7 | 12.9 | 0.00 | 0.00 | 0.00 | 69 | 1019.8 |
| 20260902152525 | 31 | 216 | 8.0 | 11.3 | 0.00 | 0.00 | 0.00 | 70 | 1019.9 |
| 20260902151525 | 31 | 220 | 6.4 | 9.7 | 0.00 | 0.00 | 0.00 | 69 | 1019.9 |
| 20260902150525 | 31 | 214 | 8.0 | 11.3 | 0.00 | 0.00 | 0.00 | 71 | 1020.0 |
| 20260902145525 | 31 | 211 | 8.0 | 11.3 | 0.00 | 0.00 | 0.00 | 70 | 1020.0 |
| 20260902144525 | 30 | 218 | 4.8 | 9.7 | 0.00 | 0.00 | 0.00 | 71 | 1020.1 |
| 20260902143525 | 30 | 206 | 6.4 | 11.3 | 0.00 | 0.00 | 0.00 | 73 | 1020.0 |
| 20260902142535 | 30 | 207 | 6.4 | 11.3 | 0.00 | 0.00 | 0.00 | 75 | 1020.0 |
| 20260902141525 | 29 | 217 | 6.4 | 9.7 | 0.00 | 0.00 | 0.00 | 75 | 1020.0 |
| 20260902140525 | 29 | 210 | 6.4 | 9.7 | 0.00 | 0.00 | 0.00 | 78 | 1019.9 |
| 20260902135525 | 28 | 209 | 4.8 | 8.0 | 0.00 | 0.00 | 0.00 | 78 | 1020.0 |
| 20260902134525 | 28 | 210 | 4.8 | 6.4 | 0.00 | 0.00 | 0.00 | 78 | 1020.1 |
| 20260902133545 | 27 | 205 | 4.8 | 6.4 | 0.00 | 0.00 | 0.00 | 81 | 1020.1 |
| 20260902132535 | 27 | 212 | 6.4 | 9.7 | 0.00 | 0.00 | 0.00 | 82 | 1020.1 |
| 20260902131525 | 27 | 202 | 4.8 | 8.0 | 0.00 | 0.00 | 0.00 | 82 | 1020.1 |
| 20260902130545 | 26 | 203 | 3.2 | 4.8 | 0.00 | 0.00 | 0.00 | 84 | 1020.0 |
| 20260902125525 | 25 | 0.0 | 0.0 | 0.00 | 0.00 | 0.00 | 91 | 1020.0 | |
| 20260902124526 | 24 | 0.0 | 0.0 | 0.00 | 0.00 | 0.00 | 96 | 1020.1 | |
| 20260902123525 | 23 | 0.0 | 0.0 | 0.00 | 0.00 | 0.00 | 97 | 1020.1 | |
| 20260902122526 | 23 | 0.0 | 0.0 | 0.00 | 0.00 | 0.00 | 98 | 1020.0 | |
| 20260902121525 | 22 | 0.0 | 0.0 | 0.00 | 0.00 | 0.00 | 99 | 1019.9 | |
| 20260902120525 | 21 | 0.0 | 0.0 | 0.00 | 0.00 | 0.00 | 99 | 1019.8 | |
| 20260902115526 | 21 | 0.0 | 0.0 | 0.00 | 0.00 | 0.00 | 99 | 1019.6 | |
| 20260902114525 | 20 | 0.0 | 0.0 | 0.00 | 0.00 | 0.00 | 99 | 1019.5 | |
| 20260902113526 | 20 | 0.0 | 0.0 | 0.00 | 0.00 | 0.00 | 99 | 1019.4 | |
| 20260902112525 | 20 | 0.0 | 0.0 | 0.00 | 0.00 | 0.00 | 99 | 1019.3 | |
| 20260902111525 | 20 | 0.0 | 0.0 | 0.00 | 0.00 | 0.00 | 99 | 1019.2 | |
| 20260902110525 | 20 | 0.0 | 0.0 | 0.00 | 0.00 | 0.00 | 99 | 1019.2 | |
| 20260902105526 | 20 | 0.0 | 0.0 | 0.00 | 0.00 | 0.00 | 99 | 1019.2 | |
| 20260902104626 | 20 | 0.0 | 0.0 | 0.00 | 0.00 | 0.00 | 99 | 1019.2 | |
| 20260902103526 | 20 | 0.0 | 0.0 | 0.00 | 0.00 | 0.00 | 99 | 1019.1 | |
| 20260902102545 | 20 | 0.0 | 0.0 | 0.00 | 0.00 | 0.00 | 99 | 1019.1 | |
| 20260902101605 | 20 | 0.0 | 0.0 | 0.00 | 0.00 | 0.00 | 99 | 1019.1 | |
| 20260902100526 | 20 | 0.0 | 0.0 | 0.00 | 0.00 | 0.00 | 99 | 1019.1 | |
| 20260902095525 | 20 | 0.0 | 0.0 | 0.00 | 0.00 | 0.00 | 99 | 1019.0 | |
| 20260902094525 | 20 | 0.0 | 0.0 | 0.00 | 0.00 | 0.00 | 99 | 1018.9 | |
| 20260902093526 | 20 | 0.0 | 0.0 | 0.00 | 0.00 | 0.00 | 99 | 1018.9 | |
| 20260902092525 | 20 | 0.0 | 0.0 | 0.00 | 0.00 | 0.00 | 99 | 1018.9 | |
| 20260902091526 | 21 | 0.0 | 0.0 | 0.00 | 0.00 | 0.00 | 99 | 1018.9 | |
| 20260902090525 | 20 | 0.0 | 0.0 | 0.00 | 0.00 | 0.00 | 99 | 1018.7 | |
| 20260902085526 | 21 | 0.0 | 0.0 | 0.00 | 0.00 | 0.00 | 99 | 1018.8 |